Location: Az?znagar
(16.8373°N, 80.5091°E)
Time: 05:00:02
(UTC+00:00)

Daily predictions for brighter satellites

Satellite Brightness Start Highest point End
(mag) Time Altitude Azimuth Time Altitude Azimuth Time Altitude Azimuth
Cosmos 1867 3.7 00:00:15 10° NNW 00:05:42 78° ENE 00:11:05 10° SSE
Cosmos 1812 2.9 00:01:56 10° N 00:05:44 74° E 00:09:32 10° S
Cosmos 2208 Rocket 4.0 00:01:13 10° NNW 00:06:33 68° WSW 00:11:48 10° S
APEX 3.0 00:05:28 10° NNW 00:08:48 69° WSW 00:12:55 10° S
SL-4 R/B 2.1 00:07:04 10° SSW 00:10:24 61° SE 00:13:50 10° NE
Cosmos 1777 Rocket 4.0 00:05:32 10° SSW 00:10:43 90° WSW 00:15:57 10° NNE
Okean 3 Rocket 4.1 00:09:37 10° SSW 00:13:47 37° W 00:17:59 10° NNW
ASTRO E2 3.9 00:11:13 10° SW 00:14:59 43° SSE 00:18:45 10° ENE
Delta 168 4.3 00:09:02 10° W 00:15:01 70° NNW 00:24:19 10° ENE
Meteor PRIRODA 3.7 00:12:12 10° NNE 00:15:48 81° E 00:19:26 10° S
BREEZE-M R/B 3.8 00:14:00 13° WNW 00:16:28 33° SW 00:21:15 10° SSE
ATLAS 3B R/B 2.5 00:11:01 10° SSW 00:17:22 69° WNW 00:23:53 10° NNE
CZ-2C R/B 2.7 00:12:18 10° S 00:17:53 84° WSW 00:23:22 10° NNW
CZ-4C R/B 4.2 00:16:27 10° SSE 00:19:28 40° ENE 00:22:26 10° N
Cosmos 921 Rocket 3.1 00:16:12 10° NNW 00:20:40 84° WSW 00:25:08 10° S
Cosmos 1862 4.5 00:19:19 10° SW 00:22:22 21° W 00:25:25 10° NNW
SJ-7 4.5 00:19:33 10° N 00:23:36 57° WNW 00:27:36 10° SSW
Meteor 1-31 Rocket 4.2 00:23:02 10° NNW 00:25:48 19° WNW 00:28:32 10° WSW
Hubble Space Telescope 1.2 00:22:24 10° NW 00:26:25 53° NNE 00:30:26 10° E
Nadezhda 4 Rocket 4.0 00:21:17 10° S 00:27:24 84° W 00:33:35 10° N
Cosmos 1782 4.0 00:25:50 10° NW 00:28:54 22° W 00:31:58 10° SW
